Regional Weather Roundup
Issued by NWS Wakefield, VA

Home | Current Version | Previous Version | Text Only | Print | Product List | Glossary Off
Versions: 1 2 3 4 5 6 7 8 9 10 11 12 13 14 15 16 17 18 19 20 21 22 23 24 25 26 27

000
ASUS41 KAKQ 170915
RWRAKQ

REGIONAL WEATHER ROUNDUP
NATIONAL WEATHER SERVICE WAKEFIELD VA
500 AM EDT THU AUG 17 2017

Note: "fair" indicates few or no clouds below 12,000 feet with no
significant weather and/or obstructions to visibility. * = Denotes
station may not report precipitation (e.g., rain,snow,etc.),
thunder or fog.

VAZ042-051-052>054-056-171000-
NORTHERN VIRGINIA

CITY           SKY/WX    TMP DP  RH WIND       PRES   REMARKS
WASH NATIONAL  PTCLDY    77  75  93 S6        30.00S
DULLES         PTCLDY    70  70 100 CALM      30.00F
FORT BELVOIR   MOCLDY    73  72  94 CALM      30.00R
QUANTICO       CLOUDY    77  74  90 CALM      30.01R
FREDERICKSBRG* PTCLDY    73  73 100 CALM      29.99F FOG
STAFFORD*      PTCLDY    72  72 100 CALM      30.04S
WARRENTON      NOT AVBL
CULPEPER*      FOG       70  70 100 CALM      30.02S VSB 1
MANASSAS*      PTCLDY    71  69  93 CALM      30.01R
LEESBURG*      CLEAR     72  72 100 CALM      30.02F
WINCHESTER     FOG       64  64 100 CALM      30.02S VSB 1
FRONT ROYAL*   SUNNY     68  68 100 CALM      30.01F
LURAY*         PTSUNNY   68  68 100 CALM      30.03S FOG
$$

VAZ048-049-060>072-079>083-171000-
CENTRAL AND SOUTH CENTRAL VIRGINIA

CITY           SKY/WX    TMP DP  RH WIND       PRES   REMARKS
RICHMOND       CLEAR     73  73 100 S3        30.01S
CHESTERFIELD*  FAIR      72  71  97 CALM      30.02S FOG
PETERSBURG*    CLEAR     70  70 100 CALM      30.02S FOG
HANOVER        CLEAR     71  68  90 CALM      30.02S FOG
TAPPAHANNOCK*  CLEAR    N/A N/A N/A SE3       30.02S
QUINTON*       FAIR      69  69 100 SE3       30.01S FOG
CHARLOTTSVILLE CLEAR     71  69  93 CALM      30.02S FOG
GORDONSVILLE*  SUNNY     69  69 100 CALM      30.01S FOG
ORANGE*        CLEAR     68  68 100 CALM      30.01S FOG
LOUISA*        CLEAR     70  66  88 CALM      30.01S FOG
BUMPASS*       FAIR      71  71 100 CALM      30.02S
FARMVILLE*     MOCLDY    71  69  95 CALM      30.01S FOG
CREWE*         FAIR      70  66  87 CALM      30.02S
FORT PICKETT*  FAIR     N/A N/A N/A S10       30.02S
CHASE CITY*    FAIR      72  72  99 CALM      30.03S
CLARKSVILLE*   FAIR      72  72 100 CALM      30.02R
SOUTH HILL*    CLEAR     69  69 100 CALM      30.08R
LAWRENCEVILLE* CLOUDY    72  71  97 CALM      30.02S VSB<1/4
EMPORIA*       CLOUDY    72  72 100 CALM      30.03R
$$

VAZ088>098-171000-
SOUTHEAST VIRGINIA

CITY           SKY/WX    TMP DP  RH WIND       PRES   REMARKS
NORFOLK        CLEAR     74  73  97 SW5       30.02R
VIRGINIA BEACH FOG       71  70  96 CALM      30.01R VSB 1
NORFOLK NAVAL  PTCLDY    74  71  91 SW3       30.03R FOG
WEST POINT*    PTCLDY    74  73  96 CALM      30.03S
SALUDA*        FAIR      74  74 100 SW5       30.01S
NEWPORT NEWS   CLEAR     74  72  93 CALM      30.02R
LANGLEY AFB    CLEAR     73  72  99 SW3       30.02R FOG
FORT EUSTIS    NOT AVBL
WILLIAMSBURG*  CLEAR     75  75 100 CALM      30.03R
HR EXEC AP*    FAIR      66  63  88 CALM      30.01R
FRANKLIN*      FOG       71  70  98 CALM      30.03R VSB 1/4
US460-WAKEFLD  FOG       72  72 100 CALM      30.02S VSB 1/4
$$

VAZ020-022-025-037-045-171000-
WEST CENTRAL AND SOUTHWEST VIRGINIA

CITY           SKY/WX    TMP DP  RH WIND       PRES   REMARKS
STAUNTON*      PTCLDY    64  64  99 CALM      30.06F FOG
WAYNESBORO*    PTSUNNY   66  66 100 CALM      30.05F
HOT SPRINGS VA CLEAR     68  61  77 CALM      30.17F
LYNCHBURG      MOCLDY    71  70  96 CALM      30.03F
DANVILLE       CLOUDY    73  73 100 CALM      30.03S
SOUTH BOSTON*  FAIR      72  71  96 CALM      30.02S
MARTINSVILLE   MOCLDY    71  70  96 CALM      30.06S
ROANOKE        PTCLDY    73  69  87 CALM      30.05F
BLACKSBURG     PTCLDY    69  69  99 CALM      30.12S
DUBLIN*        CLEAR     70  70 100 CALM      30.10S FOG
MARION*        HAZE      67  62  84 CALM      30.15R VSB 1/4
HILLSVILLE*    PTCLDY    67  63  86 CALM      30.12S
RICHLANDS*     FAIR      67  62  82 SE3       30.13R
WISE*          CLEAR     68  68 100 S3        30.13S FOG
ABINGDON*      CLEAR     70  70 100 CALM      30.10R FOG
$$

MDZ021>025-VAZ099-100-171000-
SOUTHERN MARYLAND AND THE DELMARVA PENINSULA

CITY           SKY/WX    TMP DP  RH WIND       PRES   REMARKS
PATUXENT RIVER CLOUDY    75  71  87 SW5       30.00S
BAY BRIDGE APT CLEAR     75  73  94 SE3       30.00S
LEONARDTOWN    CLOUDY    73  70  88 S3        30.02S
DOVER          CLEAR     70  70 100 CALM      29.99F
GEORGETOWN     MOCLDY    71  69  93 CALM      30.02S FOG
EASTON         PTCLDY    75  72  92 S3        30.04S
CAMBRIDGE      CLOUDY    75  75 100 CALM      30.01R FOG
SALISBURY      FOG       72  72 100 CALM      30.01S VSB 1/4
OCEAN CITY     PTCLDY    73  72  96 CALM      30.02R FOG
WALLOPS ISLAND CLOUDY    72  72 100 CALM      30.02S
ACCOMACK*      CLOUDY    73  72  98 CALM      30.02R FOG
$$

NCZ012>017-030>032-171000-
NORTH CENTRAL AND EASTERN NORTH CAROLINA

CITY           SKY/WX    TMP DP  RH WIND       PRES   REMARKS
ROANOKE RAPIDS FOG       70  70 100 CALM      30.02R VSB<1/4
RALEIGH        CLOUDY    76  73  91 CALM      30.02F
ELIZABETH CITY FOG       70  70 100 SW3       30.02R VSB 1/4
AHOSKIE*       FOG       70  70  99 CALM      30.02R VSB<1/4
EDENTON*       NOT AVBL
CURRITUCK*     MOCLDY   N/A N/A N/A CALM      30.02S
KILL DEVIL HLS CLEAR     73  73 100 CALM      30.01S FOG
MANTEO         CLEAR     71  71  99 CALM      30.03S FOG
CAPE HATTERAS  PTCLDY    74  74 100 E3        30.02R
TARBORO*       NOT AVBL
GOLDSBORO      MOCLDY    76  73  90 S1        30.01F FOG
WASHINGTON     CLEAR     75  74  98 CALM      30.02S
GREENVILLE     CLOUDY    77  77 100 S3        30.03S FOG
NEW BERN       CLEAR     75  75 100 S3        30.03S FOG
WILMINGTON     CLEAR     75  74  96 CALM      30.01S
$$

VAZ048-171000-
ELSEWHERE

CITY           SKY/WX    TMP DP  RH WIND       PRES   REMARKS
HARRISBURG PA  PTCLDY    67  66  97 CALM      30.02R
BALTIMORE      PTCLDY    70  70 100 CALM      30.00S
ANNAPOLIS      CLEAR     78  78 100 CALM      29.99S FOG
ANDREWS AFB    FOG       72  72 100 CALM      30.00S VSB 3/4
PHILADELPHIA   CLEAR     71  69  93 CALM      30.02S
HENDERSON NC   CLOUDY    71  69  93 SW3       30.02F
GREENSBORO     CLOUDY    75  74  96 CALM      30.03S
ROCKY MOUNT    CLOUDY    75  75 100 CALM      30.02R FOG
$$

VAZ100-171000-
MARINE

STATION/POSITION TIME  TEMP    WIND        PRES    WAVE   SWELL
                       AIR SEA DIR/SP/G            HT/PER HT/PER
                 (UTC) (F)     (DEG/KT/KT) (MB)    (FT/S) (FT/S)
BRANDYWINE LGT   0836   76     330/  4/  5 1016.4S
CAPE MAY NJ      0848   76 78  310/  2/  3 1015.5S
LEWES DE         0848   72 76  240/  2/  3 1015.8S
15NM E FENWICK I 0850   77 77  250/  8/  8 1016.7R   2/ 8   2/ 8
OCEAN-CITY-INLET 0842   75 78  280/  3/  4 1016.7R
WACHAPREAGUE VA  0842   74 81   CALM  /  2 1016.2S
THOMAS POINT MD  0900   79 80  170/  9/  9   N/A
GOOSES REEF MD   0900   79 79  210/  8/ 10 1016.4    0
COVE POINT MD    0842   78     240/  3/  6 1016.5S
SOLOMONS ISLAND  0842   78 81  220/  5/  7   N/A
BISHOPS HEAD MD  0842   80 83  210/  6/  8 1016.2R
PINEY POINT MD   0842          250/  4/  6   N/A
POTOMAC MD       0900   78 80  240/  8/ 10 1015.5    1/ 2
CAMBRIDGE MD     0842   77 82              1016.8S
LEWISETTA VA     0842   76 82  240/  8/ 10 1015.9R
RAPPAHANNOCK LGT 0842          220/  9/  9 1016.7S
STINGRAY PT      0900   78 81  250/ 10/ 10 1016.5    1
YORK RVR RNG VA  0842   77     250/  5/  6 1016.7R
YORKTOWN VA      0842   75 81   CALM  /  2 1016.1R
JAMESTOWN VA     0900      82  210/  4/  6   N/A     0
DOMINION TERM VA 0842   76     210/  3/  5 1016.5R
KIPTOPEKE VA     0842      79  220/  4/  5   N/A
CHES BAY BRIDGE  0842   76 78  240/  7/  8 1016.2R
CAPE HENRY VA    0842   74     200/  7/  8   N/A
WILLOUBY STN VA  0842   76     270/  3/  4 1016.4R
S CRANEY ISL VA  0842   75     210/  3/  5 1016.2S
CAPE HENRY BUOY  0900      78                N/A     2/ 7
1ST LANDING BUOY 0900   77 79              1016.4    1/ 4
64NM E OF VA BCH 0850   76 77  110/  2/  2 1016.8F   2/ 7   2/ 7
DUCK PIER NC     0842   76 78  130/  5/  6 1016.2R
44100 DUCK FRF   0805      78                N/A     2/ 7
44056 DUCK FRF   0900      78                N/A     2/ 8
OREGON INLET NC  0842   75 82   30/  1/  2 1016.3F
HATTERAS NC      0842   79 83   10/  3/  4 1016.3S
DIAMOND SHLS NC  0850   79 82  360/  8/  8 1016.1F   2/ 8   2/ 8
CAPE LOOKOUT NC  0900   80      50/  3/  3 1016.0F
$$




USA.gov is the U.S. government's official web portal to all federal, state and local government web resources and services.